| time (UTC) | temp F | wind direction | speed MPH | gust MPH | rain 1hr in | rain 24hr in | rain mn in | humidity % | barometer mb |
| 20260504081503 | 40 | 296 | 2.0 | 6.0 | 0.00 | 0.01 | 0.01 | 89 | 1013.2 |
| 20260504044536 | 41 | 222 | 0.0 | 7.0 | 0.00 | 0.00 | 0.00 | 64 | 1013.7 |
| 20260504043035 | 41 | 312 | 1.0 | 9.0 | 0.00 | 0.00 | 0.00 | 63 | 1013.9 |
| 20260504041531 | 42 | 205 | 2.0 | 11.0 | 0.00 | 0.00 | 0.00 | 60 | 1014.0 |
| 20260504040028 | 41 | 200 | 2.0 | 9.0 | 0.00 | 0.00 | 0.00 | 59 | 1014.1 |
| 20260504034527 | 40 | 187 | 1.0 | 6.0 | 0.00 | 0.00 | 0.00 | 62 | 1013.9 |
| 20260504033027 | 38 | 233 | 0.0 | 3.0 | 0.00 | 0.00 | 0.00 | 67 | 1014.0 |
| 20260504031526 | 37 | 229 | 0.0 | 6.0 | 0.00 | 0.00 | 0.00 | 67 | 1014.0 |
| 20260504030025 | 37 | 268 | 0.0 | 1.0 | 0.00 | 0.00 | 0.00 | 68 | 1014.1 |
| 20260504024524 | 36 | 276 | 0.0 | 4.0 | 0.00 | 0.00 | 0.00 | 68 | 1014.1 |
| 20260504023024 | 37 | 160 | 0.0 | 2.0 | 0.00 | 0.00 | 0.00 | 69 | 1014.2 |
| 20260504021523 | 37 | 281 | 0.0 | 4.0 | 0.00 | 0.00 | 0.00 | 69 | 1014.3 |
| 20260504020022 | 37 | 285 | 0.0 | 5.0 | 0.00 | 0.00 | 0.00 | 71 | 1014.3 |
| 20260504014523 | 36 | 274 | 0.0 | 2.0 | 0.00 | 0.00 | 0.00 | 74 | 1014.5 |
| 20260504013032 | 36 | 217 | 0.0 | 2.0 | 0.00 | 0.00 | 0.00 | 76 | 1014.4 |
| 20260504011521 | 36 | 252 | 0.0 | 2.0 | 0.00 | 0.00 | 0.00 | 76 | 1014.2 |
| 20260504010020 | 36 | 238 | 0.0 | 1.0 | 0.00 | 0.00 | 0.00 | 76 | 1014.1 |
| 20260504004521 | 36 | 233 | 0.0 | 1.0 | 0.00 | 0.01 | 0.00 | 76 | 1014.0 |
| 20260504003025 | 37 | 297 | 0.0 | 0.0 | 0.00 | 0.01 | 0.00 | 77 | 1013.9 |
| 20260504001520 | 38 | 193 | 0.0 | 0.0 | 0.00 | 0.01 | 0.00 | 75 | 1014.0 |
| 20260504000045 | 39 | 193 | 0.0 | 0.0 | 0.00 | 0.01 | 0.00 | 71 | 1013.7 |
| 20260503234517 | 41 | 193 | 0.0 | 1.0 | 0.00 | 0.02 | 0.00 | 71 | 1013.7 |
| 20260503233017 | 42 | 184 | 0.0 | 2.0 | 0.00 | 0.02 | 0.00 | 66 | 1013.6 |
| 20260503231516 | 43 | 328 | 0.0 | 2.0 | 0.00 | 0.02 | 0.00 | 58 | 1013.4 |
| 20260503230015 | 43 | 106 | 0.0 | 1.0 | 0.00 | 0.02 | 0.00 | 61 | 1013.4 |
| 20260503224515 | 43 | 129 | 1.0 | 3.0 | 0.00 | 0.03 | 0.00 | 57 | 1013.5 |
| 20260503223016 | 44 | 236 | 1.0 | 4.0 | 0.00 | 0.03 | 0.00 | 56 | 1013.4 |
| 20260503221514 | 44 | 274 | 1.0 | 5.0 | 0.00 | 0.03 | 0.00 | 56 | 1013.3 |
| 20260503220013 | 44 | 105 | 1.0 | 4.0 | 0.00 | 0.03 | 0.00 | 57 | 1013.3 |
| 20260503214512 | 44 | 130 | 1.0 | 5.0 | 0.00 | 0.03 | 0.00 | 58 | 1013.2 |
| 20260503213011 | 44 | 62 | 2.0 | 7.0 | 0.00 | 0.03 | 0.00 | 58 | 1013.2 |
| 20260503211514 | 43 | 85 | 2.0 | 5.0 | 0.00 | 0.03 | 0.00 | 58 | 1013.2 |
| 20260503210109 | 43 | 100 | 2.0 | 7.0 | 0.00 | 0.03 | 0.00 | 59 | 1013.2 |
| 20260503204508 | 43 | 19 | 2.0 | 6.0 | 0.00 | 0.03 | 0.00 | 60 | 1013.2 |
| 20260503203018 | 43 | 181 | 1.0 | 11.0 | 0.00 | 0.03 | 0.00 | 61 | 1013.0 |
| 20260503201506 | 43 | 130 | 1.0 | 10.0 | 0.00 | 0.03 | 0.00 | 61 | 1013.2 |
| 20260503200004 | 43 | 94 | 2.0 | 8.0 | 0.00 | 0.03 | 0.00 | 60 | 1013.4 |
| 20260503194503 | 44 | 98 | 4.0 | 9.0 | 0.00 | 0.03 | 0.00 | 60 | 1013.4 |
| 20260503193100 | 43 | 61 | 3.0 | 9.0 | 0.00 | 0.03 | 0.00 | 62 | 1013.4 |
| 20260503191604 | 42 | 77 | 3.0 | 8.0 | 0.00 | 0.03 | 0.00 | 63 | 1013.8 |
| 20260503190056 | 42 | 84 | 2.0 | 5.0 | 0.00 | 0.03 | 0.00 | 63 | 1013.9 |
| 20260503184555 | 41 | 36 | 5.0 | 10.0 | 0.00 | 0.03 | 0.00 | 64 | 1014.0 |
| 20260503183054 | 42 | 91 | 2.0 | 7.0 | 0.00 | 0.03 | 0.00 | 62 | 1014.0 |
| 20260503181603 | 42 | 134 | 3.0 | 11.0 | 0.00 | 0.03 | 0.00 | 61 | 1013.9 |
| 20260503180053 | 43 | 114 | 2.0 | 8.0 | 0.00 | 0.03 | 0.00 | 63 | 1013.9 |
| 20260503174553 | 42 | 151 | 3.0 | 9.0 | 0.00 | 0.03 | 0.00 | 63 | 1014.0 |
| 20260503173057 | 42 | 116 | 1.0 | 7.0 | 0.00 | 0.03 | 0.00 | 65 | 1014.2 |
| 20260503171550 | 42 | 115 | 2.0 | 6.0 | 0.00 | 0.03 | 0.00 | 62 | 1014.0 |